Waco, TX

4:47 AM CDT on September 26, 2017 (GMT -0500)
Waco Regional

Weather History for KACT - June, 2012

Change the Weather History Date:

Monday, June 18, 2012

  Actual Average Record
Temperature  
Mean Temperature 86 °F 82 °F  
Max Temperature 95 °F 92 °F 106 °F (2011)
Min Temperature 76 °F 71 °F 62 °F (1941)
Degree Days  
Heating Degree Days 0 0  
Month to date heating degree days 0 0  
Since 1 June heating degree days 0 0  
Since 1 July heating degree days 1758 2142  
Cooling Degree Days 21 17  
Month to date cooling degree days 324 274  
Year to date cooling degree days 989 726  
Since 1 June cooling degree days 324 274  
Growing Degree Days 35 (Base 50)    
Moisture  
Dew Point 65 °F    
Average Humidity 54    
Maximum Humidity 74    
Minimum Humidity 34    
Precipitation  
Precipitation 0.00 in 0.11 in 1.86 in (1966)
Month to date precipitation 1.05 2.37  
Year to date precipitation 20.88 17.26  
Sea Level Pressure  
Sea Level Pressure 29.79 in    
Wind  
Wind Speed 14 mph (SSE)    
Max Wind Speed 23 mph    
Max Gust Speed 28 mph    
Visibility 10 miles    
Events      
T = Trace of Precipitation, MM = Missing Value Source: NWS Daily Summary

Daily Weather History Graph

Daily Weather History Graph

Search for Another Location

Airport or City:

Trip Planner

Search our weather history database for the weather conditions in past years. The results will help you decide how hot, cold, wet, or windy it might be!

Date:

Astronomy

Jun. 18, 2012 Rise Set
Actual Time 6:23 AM CDT 8:36 PM CDT
Civil Twilight 5:55 AM CDT 9:04 PM CDT
Nautical Twilight 5:21 AM CDT 9:39 PM CDT
Astronomical Twilight 4:44 AM CDT 10:16 PM CDT
Moon 5:37 AM CDT (6/18) 7:58 PM CDT (6/18)
Length of Visible Light 15h 08m
Length of Day
14h 12m
Waning Crescent, 1% of the Moon is Illuminated
Jun 18
Waning Crescent
Jun 19
New
Jun 26
First Quarter
Jul 3
Full
Jul 10
Last Quarter

Hourly Weather History & Observations

Time (CDT) Temp. Heat Index Dew Point Humidity Pressure Visibility Wind Dir Wind Speed Gust Speed Precip Events Conditions
12:51 AM 81.0 °F 82.7 °F 64.9 °F 58% 29.81 in 10.0 mi SSE 12.7 mph - N/A   Clear
1:51 AM 80.1 °F 81.9 °F 64.9 °F 60% 29.81 in 10.0 mi SSE 12.7 mph 18.4 mph N/A   Clear
2:51 AM 80.1 °F 81.9 °F 64.9 °F 60% 29.80 in 10.0 mi SSE 13.8 mph - N/A   Clear
3:51 AM 79.0 °F - 66.0 °F 64% 29.79 in 10.0 mi South 12.7 mph - N/A   Clear
4:51 AM 77.0 °F - 66.9 °F 71% 29.78 in 10.0 mi SSE 9.2 mph - N/A   Clear
5:51 AM 77.0 °F - 66.9 °F 71% 29.79 in 10.0 mi South 12.7 mph - N/A   Clear
6:51 AM 75.9 °F - 66.9 °F 74% 29.81 in 10.0 mi South 10.4 mph - N/A   Clear
7:51 AM 77.0 °F - 66.9 °F 71% 29.83 in 10.0 mi SSE 10.4 mph - N/A   Clear
8:51 AM 78.1 °F - 66.0 °F 66% 29.84 in 10.0 mi SSE 11.5 mph - N/A   Clear
9:51 AM 82.9 °F 85.4 °F 66.9 °F 58% 29.84 in 10.0 mi South 11.5 mph - N/A   Clear
10:51 AM 87.1 °F 89.9 °F 66.9 °F 51% 29.83 in 10.0 mi SSE 17.3 mph 21.9 mph N/A   Clear
11:51 AM 89.1 °F 91.3 °F 66.0 °F 46% 29.82 in 10.0 mi SSE 16.1 mph - N/A   Clear
12:51 PM 91.9 °F 93.3 °F 64.0 °F 39% 29.81 in 10.0 mi SSE 12.7 mph - N/A   Clear
1:51 PM 91.9 °F 93.3 °F 64.0 °F 39% 29.79 in 10.0 mi South 10.4 mph - N/A   Clear
2:51 PM 93.9 °F 96.1 °F 64.9 °F 38% 29.77 in 10.0 mi SSE 12.7 mph - N/A   Clear
3:51 PM 95.0 °F 95.6 °F 62.1 °F 33% 29.75 in 10.0 mi South 11.5 mph 20.7 mph N/A   Clear
4:51 PM 93.9 °F 95.2 °F 63.0 °F 36% 29.74 in 10.0 mi SSE 17.3 mph - N/A   Partly Cloudy
5:51 PM 93.0 °F 95.0 °F 64.9 °F 39% 29.74 in 10.0 mi SE 17.3 mph 25.3 mph N/A   Clear
6:51 PM 91.0 °F 92.6 °F 64.0 °F 41% 29.74 in 10.0 mi SE 17.3 mph - N/A   Clear
7:51 PM 88.0 °F 88.7 °F 63.0 °F 43% 29.75 in 10.0 mi SE 19.6 mph 27.6 mph N/A   Clear
8:51 PM 86.0 °F 86.8 °F 63.0 °F 46% 29.76 in 10.0 mi SE 16.1 mph - N/A   Clear
9:51 PM 84.0 °F 85.4 °F 64.0 °F 51% 29.78 in 10.0 mi SE 12.7 mph - N/A   Clear
10:51 PM 82.0 °F 84.9 °F 68.0 °F 62% 29.81 in 10.0 mi SSE 12.7 mph 21.9 mph N/A   Clear
11:51 PM 81.0 °F 84.1 °F 69.1 °F 67% 29.82 in 10.0 mi SSE 17.3 mph 23.0 mph N/A   Clear